Location: Glen Waverley
(37.8830°S, 145.1670°E)
Time: 20:44:12
(UTC+10:00)

ISS - Visible Passes

Search period start: 20 April 2024 00:00
Search period end: 30 April 2024 00:00
Orbit: 412 x 418 km, 51.6° (Epoch: 20 April)

Date Brightness Start Highest point End Pass type
(mag) Time Alt. Az. Time Alt. Az. Time Alt. Az.
20 Apr -1.0 19:04:18 10° SW 19:05:55 13° SSW 19:07:30 10° S visible
21 Apr -1.3 18:14:31 10° WSW 18:16:47 16° SSW 18:19:04 10° SSE visible
23 Apr -1.0 18:15:19 10° SSW 18:16:08 11° SSW 18:16:56 10° S visible
28 Apr -1.5 19:00:48 10° SSW 19:02:20 14° SSE 19:02:20 14° SSE visible
29 Apr -1.4 18:12:04 10° S 18:13:16 11° SSE 18:14:27 10° SE visible
29 Apr -0.9 19:47:26 10° SW 19:48:01 14° SW 19:48:01 14° SW visible
